owner,sensor,date,latitude,longitude,vertical_datum,wind_speed,wind_to_direction,wind_speed_of_gust,qcFlag 
SCCF RECON,ioos:station:SCCF:53:1,2016-07-01T00:00:00Z,26.6493,-81.8810,2.11,4.7,77.4,-9999.0,'1111122,1111122,1111122' 
SCCF RECON,ioos:station:SCCF:53:1,2016-07-01T00:15:00Z,26.6493,-81.8810,2.11,2.3,56.6,-9999.0,'1111122,1111122,1111122' 
SCCF RECON,ioos:station:SCCF:53:1,2016-07-01T00:30:00Z,26.6493,-81.8810,2.11,3.3,93.6,-9999.0,'1111122,1111122,1111122' 
SCCF RECON,ioos:station:SCCF:53:1,2016-07-01T00:45:00Z,26.6493,-81.8810,2.11,2.6,87.6,-9999.0,'1111122,1111122,1111122' 
SCCF RECON,ioos:station:SCCF:53:1,2016-07-01T01:00:00Z,26.6493,-81.8810,2.11,1.3,52.6,-9999.0,'1111122,1111122,1111122' 
SCCF RECON,ioos:station:SCCF:53:1,2016-07-01T01:15:00Z,26.6493,-81.8810,2.11,2.2,34.6,-9999.0,'1111122,1111122,1111122' 
SCCF RECON,ioos:station:SCCF:53:1,2016-07-01T01:30:00Z,26.6493,-81.8810,2.11,2.8,18.7,-9999.0,'1111122,1111122,1111122' 
SCCF RECON,ioos:station:SCCF:53:1,2016-07-01T01:45:00Z,26.6493,-81.8810,2.11,0.2,15.7,-9999.0,'1111122,1111122,1111122' 
SCCF RECON,ioos:station:SCCF:53:1,2016-07-01T02:00:00Z,26.6493,-81.8810,2.11,1.6,45.1,-9999.0,'1111122,1111122,1111122' 
SCCF RECON,ioos:station:SCCF:53:1,2016-07-01T02:15:00Z,26.6493,-81.8810,2.11,1.2,61.4,-9999.0,'1111122,1111122,1111122' 
SCCF RECON,ioos:station:SCCF:53:1,2016-07-01T02:30:00Z,26.6493,-81.8810,2.11,2.1,96.8,-9999.0,'1111122,1111122,1111122' 
SCCF RECON,ioos:station:SCCF:53:1,2016-07-01T02:45:00Z,26.6493,-81.8810,2.11,1.4,128.4,-9999.0,'1111122,1111122,1111122' 
SCCF RECON,ioos:station:SCCF:53:1,2016-07-01T03:00:00Z,26.6493,-81.8810,2.11,1.8,73.4,-9999.0,'1111122,1111122,1111122' 
SCCF RECON,ioos:station:SCCF:53:1,2016-07-01T03:15:00Z,26.6493,-81.8810,2.11,1.1,145.8,-9999.0,'1111122,1111122,1111122' 
SCCF RECON,ioos:station:SCCF:53:1,2016-07-01T03:30:00Z,26.6493,-81.8810,2.11,1.8,115.9,-9999.0,'1111122,1111122,1111122' 
SCCF RECON,ioos:station:SCCF:53:1,2016-07-01T03:45:00Z,26.6493,-81.8810,2.11,1.5,118.9,-9999.0,'1111122,1111122,1111122' 
SCCF RECON,ioos:station:SCCF:53:1,2016-07-01T04:00:00Z,26.6493,-81.8810,2.11,1.5,115.5,-9999.0,'1111122,1111122,1111122' 
SCCF RECON,ioos:station:SCCF:53:1,2016-07-01T04:15:00Z,26.6493,-81.8810,2.11,1.6,80.0,-9999.0,'1111122,1111122,1111122' 
SCCF RECON,ioos:station:SCCF:53:1,2016-07-01T04:30:00Z,26.6493,-81.8810,2.11,1.8,119.1,-9999.0,'1111122,1111122,1111122' 
SCCF RECON,ioos:station:SCCF:53:1,2016-07-01T04:45:00Z,26.6493,-81.8810,2.11,2.3,154.7,-9999.0,'1111122,1111122,1111122' 
SCCF RECON,ioos:station:SCCF:53:1,2016-07-01T05:00:00Z,26.6493,-81.8810,2.11,1.4,132.1,-9999.0,'1111122,1111122,1111122' 
SCCF RECON,ioos:station:SCCF:53:1,2016-07-01T05:15:00Z,26.6493,-81.8810,2.11,2.4,136.2,-9999.0,'1111122,1111122,1111122' 
SCCF RECON,ioos:station:SCCF:53:1,2016-07-01T05:30:00Z,26.6493,-81.8810,2.11,1.4,130.3,-9999.0,'1111122,1111122,1111122' 
SCCF RECON,ioos:station:SCCF:53:1,2016-07-01T05:45:00Z,26.6493,-81.8810,2.11,1.8,171.9,-9999.0,'1111122,1111122,1111122' 
SCCF RECON,ioos:station:SCCF:53:1,2016-07-01T06:00:00Z,26.6493,-81.8810,2.11,2.0,160.8,-9999.0,'1111122,1111122,1111122' 
SCCF RECON,ioos:station:SCCF:53:1,2016-07-01T06:15:00Z,26.6493,-81.8810,2.11,2.8,141.8,-9999.0,'1111122,1111122,1111122' 
SCCF RECON,ioos:station:SCCF:53:1,2016-07-01T06:30:00Z,26.6493,-81.8810,2.11,2.3,167.4,-9999.0,'1111122,1111122,1111122' 
SCCF RECON,ioos:station:SCCF:53:1,2016-07-01T06:45:00Z,26.6493,-81.8810,2.11,1.6,141.6,-9999.0,'1111122,1111122,1111122' 
SCCF RECON,ioos:station:SCCF:53:1,2016-07-01T07:00:00Z,26.6493,-81.8810,2.11,1.5,192.8,-9999.0,'1111122,1111122,1111122' 
SCCF RECON,ioos:station:SCCF:53:1,2016-07-01T07:15:00Z,26.6493,-81.8810,2.11,0.9,132.0,-9999.0,'1111122,1111122,1111122' 
SCCF RECON,ioos:station:SCCF:53:1,2016-07-01T07:30:00Z,26.6493,-81.8810,2.11,1.6,143.9,-9999.0,'1111122,1111122,1111122' 
SCCF RECON,ioos:station:SCCF:53:1,2016-07-01T07:45:00Z,26.6493,-81.8810,2.11,2.6,153.4,-9999.0,'1111122,1111122,1111122' 
SCCF RECON,ioos:station:SCCF:53:1,2016-07-01T08:00:00Z,26.6493,-81.8810,2.11,2.7,131.9,-9999.0,'1111122,1111122,1111122' 
SCCF RECON,ioos:station:SCCF:53:1,2016-07-01T08:15:00Z,26.6493,-81.8810,2.11,2.3,136.4,-9999.0,'1111122,1111122,1111122' 
SCCF RECON,ioos:station:SCCF:53:1,2016-07-01T08:30:00Z,26.6493,-81.8810,2.11,2.5,143.5,-9999.0,'1111122,1111122,1111122' 
SCCF RECON,ioos:station:SCCF:53:1,2016-07-01T08:45:00Z,26.6493,-81.8810,2.11,2.7,145.3,-9999.0,'1111122,1111122,1111122' 
SCCF RECON,ioos:station:SCCF:53:1,2016-07-01T09:00:00Z,26.6493,-81.8810,2.11,2.6,143.2,-9999.0,'1111122,1111122,1111122' 
SCCF RECON,ioos:station:SCCF:53:1,2016-07-01T09:15:00Z,26.6493,-81.8810,2.11,2.3,120.4,-9999.0,'1111122,1111122,1111122' 
SCCF RECON,ioos:station:SCCF:53:1,2016-07-01T09:30:00Z,26.6493,-81.8810,2.11,2.0,135.6,-9999.0,'1111122,1111122,1111122' 
SCCF RECON,ioos:station:SCCF:53:1,2016-07-01T09:45:00Z,26.6493,-81.8810,2.11,2.9,132.3,-9999.0,'1111122,1111122,1111122' 
SCCF RECON,ioos:station:SCCF:53:1,2016-07-01T10:00:00Z,26.6493,-81.8810,2.11,2.8,126.2,-9999.0,'1111122,1111122,1111122' 
SCCF RECON,ioos:station:SCCF:53:1,2016-07-01T10:15:00Z,26.6493,-81.8810,2.11,2.5,137.8,-9999.0,'1111122,1111122,1111122' 
SCCF RECON,ioos:station:SCCF:53:1,2016-07-01T10:30:00Z,26.6493,-81.8810,2.11,2.3,142.3,-9999.0,'1111122,1111122,1111122' 
SCCF RECON,ioos:station:SCCF:53:1,2016-07-01T10:45:00Z,26.6493,-81.8810,2.11,2.1,124.7,-9999.0,'1111122,1111122,1111122' 
SCCF RECON,ioos:station:SCCF:53:1,2016-07-01T11:00:00Z,26.6493,-81.8810,2.11,1.9,137.2,-9999.0,'1111122,1111122,1111122' 
SCCF RECON,ioos:station:SCCF:53:1,2016-07-01T11:15:00Z,26.6493,-81.8810,2.11,3.0,142.1,-9999.0,'1111122,1111122,1111122' 
SCCF RECON,ioos:station:SCCF:53:1,2016-07-01T11:30:00Z,26.6493,-81.8810,2.11,1.5,126.3,-9999.0,'1111122,1111122,1111122' 
SCCF RECON,ioos:station:SCCF:53:1,2016-07-01T11:45:00Z,26.6493,-81.8810,2.11,1.9,127.4,-9999.0,'1111122,1111122,1111122' 
SCCF RECON,ioos:station:SCCF:53:1,2016-07-01T12:00:00Z,26.6493,-81.8810,2.11,2.6,138.8,-9999.0,'1111122,1111122,1111122' 
SCCF RECON,ioos:station:SCCF:53:1,2016-07-01T12:15:00Z,26.6493,-81.8810,2.11,2.0,174.8,-9999.0,'1111122,1111122,1111122' 
SCCF RECON,ioos:station:SCCF:53:1,2016-07-01T12:30:00Z,26.6493,-81.8810,2.11,1.8,156.4,-9999.0,'1111122,1111122,1111122' 
SCCF RECON,ioos:station:SCCF:53:1,2016-07-01T12:45:00Z,26.6493,-81.8810,2.11,1.2,144.8,-9999.0,'1111122,1111122,1111122' 
SCCF RECON,ioos:station:SCCF:53:1,2016-07-01T13:00:00Z,26.6493,-81.8810,2.11,1.4,116.3,-9999.0,'1111122,1111122,1111122' 
SCCF RECON,ioos:station:SCCF:53:1,2016-07-01T13:15:00Z,26.6493,-81.8810,2.11,2.0,188.7,-9999.0,'1111122,1111122,1111122' 
SCCF RECON,ioos:station:SCCF:53:1,2016-07-01T13:30:00Z,26.6493,-81.8810,2.11,0.5,235.8,-9999.0,'1111122,1111122,1111122' 
SCCF RECON,ioos:station:SCCF:53:1,2016-07-01T13:45:00Z,26.6493,-81.8810,2.11,1.0,266.6,-9999.0,'1111122,1111122,1111122' 
SCCF RECON,ioos:station:SCCF:53:1,2016-07-01T14:00:00Z,26.6493,-81.8810,2.11,0.8,301.3,-9999.0,'1111122,1111122,1111122' 
SCCF RECON,ioos:station:SCCF:53:1,2016-07-01T14:15:00Z,26.6493,-81.8810,2.11,1.0,230.8,-9999.0,'1111122,1111122,1111122' 
SCCF RECON,ioos:station:SCCF:53:1,2016-07-01T14:30:00Z,26.6493,-81.8810,2.11,0.8,208.0,-9999.0,'1111122,1111122,1111122' 
SCCF RECON,ioos:station:SCCF:53:1,2016-07-01T14:45:00Z,26.6493,-81.8810,2.11,0.4,226.0,-9999.0,'1111122,1111122,1111122' 
SCCF RECON,ioos:station:SCCF:53:1,2016-07-01T15:00:00Z,26.6493,-81.8810,2.11,3.1,272.8,-9999.0,'1111122,1111122,1111122' 
SCCF RECON,ioos:station:SCCF:53:1,2016-07-01T15:15:00Z,26.6493,-81.8810,2.11,3.6,265.8,-9999.0,'1111122,1111122,1111122' 
SCCF RECON,ioos:station:SCCF:53:1,2016-07-01T15:30:00Z,26.6493,-81.8810,2.11,4.6,294.4,-9999.0,'1111122,1111122,1111122' 
SCCF RECON,ioos:station:SCCF:53:1,2016-07-01T15:45:00Z,26.6493,-81.8810,2.11,3.6,270.7,-9999.0,'1111122,1111122,1111122' 
SCCF RECON,ioos:station:SCCF:53:1,2016-07-01T16:00:00Z,26.6493,-81.8810,2.11,2.2,267.0,-9999.0,'1111122,1111122,1111122' 
SCCF RECON,ioos:station:SCCF:53:1,2016-07-01T16:15:00Z,26.6493,-81.8810,2.11,2.8,265.3,-9999.0,'1111122,1111122,1111122' 
SCCF RECON,ioos:station:SCCF:53:1,2016-07-01T16:30:00Z,26.6493,-81.8810,2.11,2.6,289.0,-9999.0,'1111122,1111122,1111122' 
SCCF RECON,ioos:station:SCCF:53:1,2016-07-01T16:45:00Z,26.6493,-81.8810,2.11,3.2,268.7,-9999.0,'1111122,1111122,1111122' 
SCCF RECON,ioos:station:SCCF:53:1,2016-07-01T17:00:00Z,26.6493,-81.8810,2.11,2.0,284.0,-9999.0,'1111122,1111122,1111122' 
SCCF RECON,ioos:station:SCCF:53:1,2016-07-01T17:15:00Z,26.6493,-81.8810,2.11,3.2,274.1,-9999.0,'1111122,1111122,1111122' 
SCCF RECON,ioos:station:SCCF:53:1,2016-07-01T17:30:00Z,26.6493,-81.8810,2.11,2.9,263.4,-9999.0,'1111122,1111122,1111122' 
SCCF RECON,ioos:station:SCCF:53:1,2016-07-01T17:45:00Z,26.6493,-81.8810,2.11,2.3,236.6,-9999.0,'1111122,1111122,1111122' 
SCCF RECON,ioos:station:SCCF:53:1,2016-07-01T18:00:00Z,26.6493,-81.8810,2.11,2.9,268.6,-9999.0,'1111122,1111122,1111122' 
SCCF RECON,ioos:station:SCCF:53:1,2016-07-01T18:15:00Z,26.6493,-81.8810,2.11,1.9,255.5,-9999.0,'1111122,1111122,1111122' 
SCCF RECON,ioos:station:SCCF:53:1,2016-07-01T18:30:00Z,26.6493,-81.8810,2.11,2.8,236.3,-9999.0,'1111122,1111122,1111122' 
SCCF RECON,ioos:station:SCCF:53:1,2016-07-01T18:45:00Z,26.6493,-81.8810,2.11,1.4,262.7,-9999.0,'1111122,1111122,1111122' 
SCCF RECON,ioos:station:SCCF:53:1,2016-07-01T19:00:00Z,26.6493,-81.8810,2.11,3.1,251.9,-9999.0,'1111122,1111122,1111122' 
SCCF RECON,ioos:station:SCCF:53:1,2016-07-01T19:15:00Z,26.6493,-81.8810,2.11,1.6,229.1,-9999.0,'1111122,1111122,1111122' 
SCCF RECON,ioos:station:SCCF:53:1,2016-07-01T19:30:00Z,26.6493,-81.8810,2.11,3.3,284.6,-9999.0,'1111122,1111122,1111122' 
SCCF RECON,ioos:station:SCCF:53:1,2016-07-01T19:45:00Z,26.6493,-81.8810,2.11,2.3,260.3,-9999.0,'1111122,1111122,1111122' 
SCCF RECON,ioos:station:SCCF:53:1,2016-07-01T20:00:00Z,26.6493,-81.8810,2.11,4.0,288.7,-9999.0,'1111122,1111122,1111122' 
SCCF RECON,ioos:station:SCCF:53:1,2016-07-01T20:15:00Z,26.6493,-81.8810,2.11,2.7,290.0,-9999.0,'1111122,1111122,1111122' 
SCCF RECON,ioos:station:SCCF:53:1,2016-07-01T20:30:00Z,26.6493,-81.8810,2.11,2.4,271.4,-9999.0,'1111122,1111122,1111122' 
SCCF RECON,ioos:station:SCCF:53:1,2016-07-01T20:45:00Z,26.6493,-81.8810,2.11,3.4,279.0,-9999.0,'1111122,1111122,1111122' 
SCCF RECON,ioos:station:SCCF:53:1,2016-07-01T21:00:00Z,26.6493,-81.8810,2.11,4.9,272.2,-9999.0,'1111122,1111122,1111122' 
SCCF RECON,ioos:station:SCCF:53:1,2016-07-01T21:15:00Z,26.6493,-81.8810,2.11,4.1,275.7,-9999.0,'1111122,1111122,1111122' 
SCCF RECON,ioos:station:SCCF:53:1,2016-07-01T21:30:00Z,26.6493,-81.8810,2.11,4.8,274.4,-9999.0,'1111122,1111122,1111122' 
SCCF RECON,ioos:station:SCCF:53:1,2016-07-01T21:45:00Z,26.6493,-81.8810,2.11,6.9,284.5,-9999.0,'1111122,1111122,1111122' 
SCCF RECON,ioos:station:SCCF:53:1,2016-07-01T22:00:00Z,26.6493,-81.8810,2.11,4.4,252.0,-9999.0,'1111122,1111122,1111122' 
SCCF RECON,ioos:station:SCCF:53:1,2016-07-01T22:15:00Z,26.6493,-81.8810,2.11,4.7,279.5,-9999.0,'1111122,1111122,1111122' 
SCCF RECON,ioos:station:SCCF:53:1,2016-07-01T22:30:00Z,26.6493,-81.8810,2.11,4.8,267.9,-9999.0,'1111122,1111122,1111122' 
SCCF RECON,ioos:station:SCCF:53:1,2016-07-01T22:45:00Z,26.6493,-81.8810,2.11,6.2,275.0,-9999.0,'1111122,1111122,1111122' 
SCCF RECON,ioos:station:SCCF:53:1,2016-07-01T23:00:00Z,26.6493,-81.8810,2.11,5.5,267.1,-9999.0,'1111122,1111122,1111122' 
SCCF RECON,ioos:station:SCCF:53:1,2016-07-01T23:15:00Z,26.6493,-81.8810,2.11,4.3,282.1,-9999.0,'1111122,1111122,1111122' 
SCCF RECON,ioos:station:SCCF:53:1,2016-07-01T23:30:00Z,26.6493,-81.8810,2.11,4.4,282.9,-9999.0,'1111122,1111122,1111122' 
SCCF RECON,ioos:station:SCCF:53:1,2016-07-01T23:45:00Z,26.6493,-81.8810,2.11,5.3,304.8,-9999.0,'1111122,1111122,1111122' 
SCCF RECON,ioos:station:SCCF:53:1,2016-07-02T00:00:00Z,26.6493,-81.8810,2.11,4.7,302.0,-9999.0,'1111122,1111122,1111122' 
SCCF RECON,ioos:station:SCCF:53:1,2016-07-02T00:15:00Z,26.6493,-81.8810,2.11,4.0,324.6,-9999.0,'1111122,1111122,1111122' 
SCCF RECON,ioos:station:SCCF:53:1,2016-07-02T00:30:00Z,26.6493,-81.8810,2.11,2.7,308.9,-9999.0,'1111122,1111122,1111122' 
SCCF RECON,ioos:station:SCCF:53:1,2016-07-02T00:45:00Z,26.6493,-81.8810,2.11,2.9,301.2,-9999.0,'1111122,1111122,1111122' 
SCCF RECON,ioos:station:SCCF:53:1,2016-07-02T01:00:00Z,26.6493,-81.8810,2.11,2.0,302.0,-9999.0,'1111122,1111122,1111122' 
SCCF RECON,ioos:station:SCCF:53:1,2016-07-02T01:15:00Z,26.6493,-81.8810,2.11,2.4,286.3,-9999.0,'1111122,1111122,1111122' 
SCCF RECON,ioos:station:SCCF:53:1,2016-07-02T01:30:00Z,26.6493,-81.8810,2.11,1.6,278.5,-9999.0,'1111122,1111122,1111122' 
SCCF RECON,ioos:station:SCCF:53:1,2016-07-02T01:45:00Z,26.6493,-81.8810,2.11,2.3,302.7,-9999.0,'1111122,1111122,1111122' 
SCCF RECON,ioos:station:SCCF:53:1,2016-07-02T02:00:00Z,26.6493,-81.8810,2.11,2.3,298.4,-9999.0,'1111122,1111122,1111122' 
SCCF RECON,ioos:station:SCCF:53:1,2016-07-02T02:15:00Z,26.6493,-81.8810,2.11,1.2,290.1,-9999.0,'1111122,1111122,1111122' 
SCCF RECON,ioos:station:SCCF:53:1,2016-07-02T02:30:00Z,26.6493,-81.8810,2.11,0.7,277.1,-9999.0,'1111122,1111122,1111122' 
SCCF RECON,ioos:station:SCCF:53:1,2016-07-02T02:45:00Z,26.6493,-81.8810,2.11,1.0,268.5,-9999.0,'1111122,1111122,1111122' 
SCCF RECON,ioos:station:SCCF:53:1,2016-07-02T03:00:00Z,26.6493,-81.8810,2.11,1.1,285.2,-9999.0,'1111122,1111122,1111122' 
SCCF RECON,ioos:station:SCCF:53:1,2016-07-02T03:15:00Z,26.6493,-81.8810,2.11,0.4,193.4,-9999.0,'1111122,1111122,1111122' 
SCCF RECON,ioos:station:SCCF:53:1,2016-07-02T03:30:00Z,26.6493,-81.8810,2.11,1.1,203.1,-9999.0,'1111122,1111122,1111122' 
SCCF RECON,ioos:station:SCCF:53:1,2016-07-02T03:45:00Z,26.6493,-81.8810,2.11,0.9,194.0,-9999.0,'1111122,1111122,1111122' 
SCCF RECON,ioos:station:SCCF:53:1,2016-07-02T04:00:00Z,26.6493,-81.8810,2.11,2.1,193.4,-9999.0,'1111122,1111122,1111122' 
SCCF RECON,ioos:station:SCCF:53:1,2016-07-02T04:15:00Z,26.6493,-81.8810,2.11,0.6,234.1,-9999.0,'1111122,1111122,1111122' 
SCCF RECON,ioos:station:SCCF:53:1,2016-07-02T04:30:00Z,26.6493,-81.8810,2.11,1.4,249.9,-9999.0,'1111122,1111122,1111122' 
SCCF RECON,ioos:station:SCCF:53:1,2016-07-02T04:45:00Z,26.6493,-81.8810,2.11,2.0,211.0,-9999.0,'1111122,1111122,1111122' 
SCCF RECON,ioos:station:SCCF:53:1,2016-07-02T05:00:00Z,26.6493,-81.8810,2.11,1.7,194.8,-9999.0,'1111122,1111122,1111122' 
SCCF RECON,ioos:station:SCCF:53:1,2016-07-02T05:15:00Z,26.6493,-81.8810,2.11,2.1,228.9,-9999.0,'1111122,1111122,1111122' 
SCCF RECON,ioos:station:SCCF:53:1,2016-07-02T05:30:00Z,26.6493,-81.8810,2.11,3.0,284.9,-9999.0,'1111122,1111122,1111122' 
SCCF RECON,ioos:station:SCCF:53:1,2016-07-02T05:45:00Z,26.6493,-81.8810,2.11,1.9,262.4,-9999.0,'1111122,1111122,1111122' 
SCCF RECON,ioos:station:SCCF:53:1,2016-07-02T06:00:00Z,26.6493,-81.8810,2.11,2.2,268.8,-9999.0,'1111122,1111122,1111122' 
SCCF RECON,ioos:station:SCCF:53:1,2016-07-02T06:15:00Z,26.6493,-81.8810,2.11,2.2,279.5,-9999.0,'1111122,1111122,1111122' 
SCCF RECON,ioos:station:SCCF:53:1,2016-07-02T06:30:00Z,26.6493,-81.8810,2.11,2.2,277.3,-9999.0,'1111122,1111122,1111122' 
SCCF RECON,ioos:station:SCCF:53:1,2016-07-02T06:45:00Z,26.6493,-81.8810,2.11,1.6,289.7,-9999.0,'1111122,1111122,1111122' 
SCCF RECON,ioos:station:SCCF:53:1,2016-07-02T07:00:00Z,26.6493,-81.8810,2.11,1.8,295.7,-9999.0,'1111122,1111122,1111122' 
SCCF RECON,ioos:station:SCCF:53:1,2016-07-02T07:15:00Z,26.6493,-81.8810,2.11,0.8,284.8,-9999.0,'1111122,1111122,1111122' 
SCCF RECON,ioos:station:SCCF:53:1,2016-07-02T07:30:00Z,26.6493,-81.8810,2.11,1.0,179.6,-9999.0,'1111122,1111122,1111122' 
SCCF RECON,ioos:station:SCCF:53:1,2016-07-02T07:45:00Z,26.6493,-81.8810,2.11,0.9,262.1,-9999.0,'1111122,1111122,1111122' 
SCCF RECON,ioos:station:SCCF:53:1,2016-07-02T08:00:00Z,26.6493,-81.8810,2.11,1.4,126.2,-9999.0,'1111122,1111122,1111122' 
SCCF RECON,ioos:station:SCCF:53:1,2016-07-02T08:15:00Z,26.6493,-81.8810,2.11,1.5,138.2,-9999.0,'1111122,1111122,1111122' 
SCCF RECON,ioos:station:SCCF:53:1,2016-07-02T08:30:00Z,26.6493,-81.8810,2.11,1.4,117.1,-9999.0,'1111122,1111122,1111122' 
SCCF RECON,ioos:station:SCCF:53:1,2016-07-02T08:45:00Z,26.6493,-81.8810,2.11,0.8,102.6,-9999.0,'1111122,1111122,1111122' 
SCCF RECON,ioos:station:SCCF:53:1,2016-07-02T09:00:00Z,26.6493,-81.8810,2.11,0.2,76.3,-9999.0,'1111122,1111122,1111122' 
SCCF RECON,ioos:station:SCCF:53:1,2016-07-02T09:15:00Z,26.6493,-81.8810,2.11,1.4,5.4,-9999.0,'1111122,1111122,1111122' 
SCCF RECON,ioos:station:SCCF:53:1,2016-07-02T09:30:00Z,26.6493,-81.8810,2.11,0.4,96.5,-9999.0,'1111122,1111122,1111122' 
SCCF RECON,ioos:station:SCCF:53:1,2016-07-02T09:45:00Z,26.6493,-81.8810,2.11,1.6,131.6,-9999.0,'1111122,1111122,1111122' 
SCCF RECON,ioos:station:SCCF:53:1,2016-07-02T10:00:00Z,26.6493,-81.8810,2.11,1.0,138.2,-9999.0,'1111122,1111122,1111122' 
SCCF RECON,ioos:station:SCCF:53:1,2016-07-02T10:15:00Z,26.6493,-81.8810,2.11,1.7,137.8,-9999.0,'1111122,1111122,1111122' 
SCCF RECON,ioos:station:SCCF:53:1,2016-07-02T10:30:00Z,26.6493,-81.8810,2.11,1.8,130.2,-9999.0,'1111122,1111122,1111122' 
SCCF RECON,ioos:station:SCCF:53:1,2016-07-02T10:45:00Z,26.6493,-81.8810,2.11,2.5,136.5,-9999.0,'1111122,1111122,1111122' 
SCCF RECON,ioos:station:SCCF:53:1,2016-07-02T11:00:00Z,26.6493,-81.8810,2.11,2.2,144.3,-9999.0,'1111122,1111122,1111122' 
SCCF RECON,ioos:station:SCCF:53:1,2016-07-02T11:15:00Z,26.6493,-81.8810,2.11,2.1,162.5,-9999.0,'1111122,1111122,1111122' 
SCCF RECON,ioos:station:SCCF:53:1,2016-07-02T11:30:00Z,26.6493,-81.8810,2.11,1.7,140.9,-9999.0,'1111122,1111122,1111122' 
SCCF RECON,ioos:station:SCCF:53:1,2016-07-02T11:45:00Z,26.6493,-81.8810,2.11,1.7,128.8,-9999.0,'1111122,1111122,1111122' 
SCCF RECON,ioos:station:SCCF:53:1,2016-07-02T12:00:00Z,26.6493,-81.8810,2.11,1.5,137.7,-9999.0,'1111122,1111122,1111122' 
SCCF RECON,ioos:station:SCCF:53:1,2016-07-02T12:15:00Z,26.6493,-81.8810,2.11,1.2,156.6,-9999.0,'1111122,1111122,1111122' 
SCCF RECON,ioos:station:SCCF:53:1,2016-07-02T12:30:00Z,26.6493,-81.8810,2.11,0.6,144.1,-9999.0,'1111122,1111122,1111122' 
SCCF RECON,ioos:station:SCCF:53:1,2016-07-02T12:45:00Z,26.6493,-81.8810,2.11,0.7,274.1,-9999.0,'1111122,1111122,1111122' 
SCCF RECON,ioos:station:SCCF:53:1,2016-07-02T13:00:00Z,26.6493,-81.8810,2.11,0.3,138.0,-9999.0,'1111122,1111122,1111122' 
SCCF RECON,ioos:station:SCCF:53:1,2016-07-02T13:15:00Z,26.6493,-81.8810,2.11,-9999.0,197.7,-9999.0,'1111122,1111122,1111122' 
SCCF RECON,ioos:station:SCCF:53:1,2016-07-02T13:30:00Z,26.6493,-81.8810,2.11,0.8,179.1,-9999.0,'1111122,1111122,1111122' 
SCCF RECON,ioos:station:SCCF:53:1,2016-07-02T13:45:00Z,26.6493,-81.8810,2.11,0.5,239.1,-9999.0,'1111122,1111122,1111122' 
SCCF RECON,ioos:station:SCCF:53:1,2016-07-02T14:00:00Z,26.6493,-81.8810,2.11,1.1,237.8,-9999.0,'1111122,1111122,1111122' 
SCCF RECON,ioos:station:SCCF:53:1,2016-07-02T14:15:00Z,26.6493,-81.8810,2.11,1.5,286.6,-9999.0,'1111122,1111122,1111122' 
SCCF RECON,ioos:station:SCCF:53:1,2016-07-02T14:30:00Z,26.6493,-81.8810,2.11,1.1,278.3,-9999.0,'1111122,1111122,1111122' 
SCCF RECON,ioos:station:SCCF:53:1,2016-07-02T14:45:00Z,26.6493,-81.8810,2.11,0.7,245.7,-9999.0,'1111122,1111122,1111122' 
SCCF RECON,ioos:station:SCCF:53:1,2016-07-02T15:00:00Z,26.6493,-81.8810,2.11,0.9,230.3,-9999.0,'1111122,1111122,1111122' 
SCCF RECON,ioos:station:SCCF:53:1,2016-07-02T15:15:00Z,26.6493,-81.8810,2.11,0.8,211.7,-9999.0,'1111122,1111122,1111122' 
SCCF RECON,ioos:station:SCCF:53:1,2016-07-02T15:30:00Z,26.6493,-81.8810,2.11,1.0,229.2,-9999.0,'1111122,1111122,1111122' 
SCCF RECON,ioos:station:SCCF:53:1,2016-07-02T15:45:00Z,26.6493,-81.8810,2.11,1.2,286.2,-9999.0,'1111122,1111122,1111122' 
SCCF RECON,ioos:station:SCCF:53:1,2016-07-02T16:00:00Z,26.6493,-81.8810,2.11,2.1,230.3,-9999.0,'1111122,1111122,1111122' 
SCCF RECON,ioos:station:SCCF:53:1,2016-07-02T16:15:00Z,26.6493,-81.8810,2.11,2.0,229.2,-9999.0,'1111122,1111122,1111122' 
SCCF RECON,ioos:station:SCCF:53:1,2016-07-02T16:30:00Z,26.6493,-81.8810,2.11,2.6,216.8,-9999.0,'1111122,1111122,1111122' 
SCCF RECON,ioos:station:SCCF:53:1,2016-07-02T16:45:00Z,26.6493,-81.8810,2.11,2.6,206.7,-9999.0,'1111122,1111122,1111122' 
SCCF RECON,ioos:station:SCCF:53:1,2016-07-02T17:00:00Z,26.6493,-81.8810,2.11,2.7,218.3,-9999.0,'1111122,1111122,1111122' 
SCCF RECON,ioos:station:SCCF:53:1,2016-07-02T17:15:00Z,26.6493,-81.8810,2.11,2.6,201.3,-9999.0,'1111122,1111122,1111122' 
SCCF RECON,ioos:station:SCCF:53:1,2016-07-02T17:30:00Z,26.6493,-81.8810,2.11,4.1,213.1,-9999.0,'1111122,1111122,1111122' 
SCCF RECON,ioos:station:SCCF:53:1,2016-07-02T17:45:00Z,26.6493,-81.8810,2.11,4.9,203.5,-9999.0,'1111122,1111122,1111122' 
SCCF RECON,ioos:station:SCCF:53:1,2016-07-02T18:00:00Z,26.6493,-81.8810,2.11,4.7,205.7,-9999.0,'1111122,1111122,1111122' 
SCCF RECON,ioos:station:SCCF:53:1,2016-07-02T18:15:00Z,26.6493,-81.8810,2.11,4.3,205.9,-9999.0,'1111122,1111122,1111122' 
SCCF RECON,ioos:station:SCCF:53:1,2016-07-02T18:30:00Z,26.6493,-81.8810,2.11,3.1,248.8,-9999.0,'1111122,1111122,1111122' 
SCCF RECON,ioos:station:SCCF:53:1,2016-07-02T18:45:00Z,26.6493,-81.8810,2.11,4.1,222.0,-9999.0,'1111122,1111122,1111122' 
SCCF RECON,ioos:station:SCCF:53:1,2016-07-02T19:00:00Z,26.6493,-81.8810,2.11,5.4,267.7,-9999.0,'1111122,1111122,1111122' 
SCCF RECON,ioos:station:SCCF:53:1,2016-07-02T19:15:00Z,26.6493,-81.8810,2.11,5.2,287.3,-9999.0,'1111122,1111122,1111122' 
SCCF RECON,ioos:station:SCCF:53:1,2016-07-02T19:30:00Z,26.6493,-81.8810,2.11,4.4,265.5,-9999.0,'1111122,1111122,1111122' 
SCCF RECON,ioos:station:SCCF:53:1,2016-07-02T19:45:00Z,26.6493,-81.8810,2.11,5.0,270.2,-9999.0,'1111122,1111122,1111122' 
SCCF RECON,ioos:station:SCCF:53:1,2016-07-02T20:00:00Z,26.6493,-81.8810,2.11,4.1,296.3,-9999.0,'1111122,1111122,1111122' 
SCCF RECON,ioos:station:SCCF:53:1,2016-07-02T20:15:00Z,26.6493,-81.8810,2.11,3.8,270.5,-9999.0,'1111122,1111122,1111122' 
SCCF RECON,ioos:station:SCCF:53:1,2016-07-02T20:30:00Z,26.6493,-81.8810,2.11,5.5,301.4,-9999.0,'1111122,1111122,1111122' 
SCCF RECON,ioos:station:SCCF:53:1,2016-07-02T20:45:00Z,26.6493,-81.8810,2.11,4.3,274.6,-9999.0,'1111122,1111122,1111122' 
SCCF RECON,ioos:station:SCCF:53:1,2016-07-02T21:00:00Z,26.6493,-81.8810,2.11,4.1,259.6,-9999.0,'1111122,1111122,1111122' 
SCCF RECON,ioos:station:SCCF:53:1,2016-07-02T21:15:00Z,26.6493,-81.8810,2.11,2.4,268.8,-9999.0,'1111122,1111122,1111122' 
SCCF RECON,ioos:station:SCCF:53:1,2016-07-02T21:30:00Z,26.6493,-81.8810,2.11,3.4,307.4,-9999.0,'1111122,1111122,1111122' 
SCCF RECON,ioos:station:SCCF:53:1,2016-07-02T21:45:00Z,26.6493,-81.8810,2.11,3.2,355.0,-9999.0,'1111122,1111122,1111122' 
SCCF RECON,ioos:station:SCCF:53:1,2016-07-02T22:00:00Z,26.6493,-81.8810,2.11,3.9,95.5,-9999.0,'1111122,1111122,1111122' 
SCCF RECON,ioos:station:SCCF:53:1,2016-07-02T22:15:00Z,26.6493,-81.8810,2.11,1.4,102.8,-9999.0,'1111122,1111122,1111122' 
SCCF RECON,ioos:station:SCCF:53:1,2016-07-02T22:30:00Z,26.6493,-81.8810,2.11,1.4,5.6,-9999.0,'1111122,1111122,1111122' 
SCCF RECON,ioos:station:SCCF:53:1,2016-07-02T22:45:00Z,26.6493,-81.8810,2.11,1.4,68.3,-9999.0,'1111122,1111122,1111122' 
SCCF RECON,ioos:station:SCCF:53:1,2016-07-02T23:00:00Z,26.6493,-81.8810,2.11,2.2,64.9,-9999.0,'1111122,1111122,1111122' 
SCCF RECON,ioos:station:SCCF:53:1,2016-07-02T23:15:00Z,26.6493,-81.8810,2.11,1.8,98.5,-9999.0,'1111122,1111122,1111122' 
SCCF RECON,ioos:station:SCCF:53:1,2016-07-02T23:30:00Z,26.6493,-81.8810,2.11,1.9,119.4,-9999.0,'1111122,1111122,1111122' 
SCCF RECON,ioos:station:SCCF:53:1,2016-07-02T23:45:00Z,26.6493,-81.8810,2.11,1.6,90.8,-9999.0,'1111122,1111122,1111122' 
SCCF RECON,ioos:station:SCCF:53:1,2016-07-03T00:00:00Z,26.6493,-81.8810,2.11,1.7,108.4,-9999.0,'1111122,1111122,1111122' 
SCCF RECON,ioos:station:SCCF:53:1,2016-07-03T00:15:00Z,26.6493,-81.8810,2.11,2.3,144.1,-9999.0,'1111122,1111122,1111122' 
SCCF RECON,ioos:station:SCCF:53:1,2016-07-03T00:30:00Z,26.6493,-81.8810,2.11,3.1,140.2,-9999.0,'1111122,1111122,1111122' 
SCCF RECON,ioos:station:SCCF:53:1,2016-07-03T00:45:00Z,26.6493,-81.8810,2.11,5.5,136.0,-9999.0,'1111122,1111122,1111122' 